Linn Creek, MO

10:53 PM CST on December 03, 2016 (GMT -0600)
Camdenton

Weather History for KH21 - March, 2014

Change the Weather History Date:

Saturday, March 22, 2014

  Actual Average (KAIZ) Record (KAIZ)
Temperature  
Mean Temperature 42 °F -  
Max Temperature 51 °F 56 °F 78 °F (2016)
Min Temperature 33 °F 35 °F 15 °F (2002)
Degree Days  
Heating Degree Days 23    
Moisture  
Dew Point 26 °F    
Average Humidity 56    
Maximum Humidity 87    
Minimum Humidity 34    
Precipitation  
Precipitation 0.00 in - - ()
Sea Level Pressure  
Sea Level Pressure 30.20 in    
Wind  
Wind Speed 12 mph (NNW)    
Max Wind Speed 17 mph    
Max Gust Speed 25 mph    
Visibility 10 miles    
Events      
Averages and records for this station are not official NWS values.
T = Trace of Precipitation, MM = Missing Value Source: NWS Daily Summary

Daily Weather History Graph

Daily Weather History Graph

Search for Another Location

Airport or City:

Trip Planner

Search our weather history database for the weather conditions in past years. The results will help you decide how hot, cold, wet, or windy it might be!

Date:

Astronomy

Mar. 22, 2014 Rise Set
Actual Time 7:11 AM CDT 7:24 PM CDT
Civil Twilight 6:44 AM CDT 7:50 PM CDT
Nautical Twilight 6:14 AM CDT 8:21 PM CDT
Astronomical Twilight 5:42 AM CDT 8:52 PM CDT
Moon 12:39 AM CDT (3/22) 10:59 AM CDT (3/22)
Length of Visible Light 13h 05m
Length of Day
12h 13m
Waning Gibbous, 65% of the Moon is Illuminated
Mar 22
Waning Gibbous
Mar 23
Last Quarter
Mar 30
New
Apr 7
First Quarter
Apr 15
Full

Hourly Weather History & Observations

Time (CDT) Temp. Windchill Dew Point Humidity Pressure Visibility Wind Dir Wind Speed Gust Speed Precip Events Conditions
12:15 AM 51.8 °F - 32.0 °F 47% 30.05 in 10.0 mi NNW 17.3 mph 25.3 mph N/A   Clear
12:35 AM 50.0 °F - 32.0 °F 50% 30.06 in 10.0 mi NNW 16.1 mph 20.7 mph N/A   Clear
12:55 AM 50.0 °F - 32.0 °F 50% 30.07 in 10.0 mi NNW 17.3 mph 23.0 mph N/A   Clear
1:15 AM 48.2 °F - 32.0 °F 54% 30.07 in 10.0 mi NNW 9.2 mph - N/A   Clear
1:35 AM 46.4 °F 40.4 °F 32.0 °F 57% 30.08 in 10.0 mi NNW 13.8 mph 20.7 mph N/A   Clear
1:55 AM 46.4 °F 41.9 °F 32.0 °F 57% 30.08 in 10.0 mi NNW 9.2 mph - N/A   Clear
2:15 AM 46.4 °F 40.4 °F 32.0 °F 57% 30.09 in 10.0 mi NNW 13.8 mph 21.9 mph N/A   Clear
2:35 AM 44.6 °F 38.4 °F 32.0 °F 61% 30.10 in 10.0 mi NNW 12.7 mph 16.1 mph N/A   Clear
2:55 AM 44.6 °F 38.4 °F 32.0 °F 61% 30.10 in 10.0 mi NNW 12.7 mph - N/A   Clear
3:15 AM 42.8 °F 36.6 °F 32.0 °F 66% 30.10 in 10.0 mi NNW 11.5 mph - N/A   Clear
3:35 AM 42.8 °F 36.2 °F 32.0 °F 66% 30.11 in 10.0 mi NW 12.7 mph - N/A   Clear
3:55 AM 41.0 °F 33.5 °F 32.0 °F 70% 30.12 in 10.0 mi NNW 13.8 mph 20.7 mph N/A   Clear
4:15 AM 37.4 °F 28.5 °F 30.2 °F 75% 30.12 in 10.0 mi NNW 15.0 mph 18.4 mph N/A   Clear
4:35 AM 37.4 °F 30.3 °F 30.2 °F 75% 30.12 in 10.0 mi NNW 10.4 mph - N/A   Clear
4:55 AM 35.6 °F 29.2 °F 30.2 °F 81% 30.13 in 10.0 mi NNW 8.1 mph - N/A   Clear
5:15 AM 35.6 °F 28.6 °F 30.2 °F 81% 30.15 in 10.0 mi NNW 9.2 mph - N/A   Clear
5:35 AM 35.6 °F 28.0 °F 30.2 °F 81% 30.16 in 10.0 mi NNW 10.4 mph 16.1 mph N/A   Clear
5:55 AM 35.6 °F 28.0 °F 30.2 °F 81% 30.17 in 10.0 mi NNW 10.4 mph - N/A   Clear
6:15 AM 33.8 °F 27.0 °F 30.2 °F 87% 30.17 in 10.0 mi NNW 8.1 mph - N/A   Clear
6:35 AM 33.8 °F 26.4 °F 28.4 °F 81% 30.19 in 10.0 mi NNW 9.2 mph 18.4 mph N/A   Clear
6:55 AM 33.8 °F 26.4 °F 28.4 °F 81% 30.20 in 10.0 mi NNW 9.2 mph - N/A   Clear
7:15 AM 33.8 °F 25.8 °F 28.4 °F 81% 30.20 in 10.0 mi North 10.4 mph 17.3 mph N/A   Clear
7:35 AM 33.8 °F 24.8 °F 28.4 °F 81% 30.21 in 10.0 mi NNW 12.7 mph 18.4 mph N/A   Clear
7:55 AM 33.8 °F 27.0 °F 28.4 °F 81% 30.22 in 10.0 mi NNW 8.1 mph - N/A   Clear
8:15 AM 33.8 °F 24.8 °F 28.4 °F 81% 30.23 in 10.0 mi NNW 12.7 mph 17.3 mph N/A   Scattered Clouds
8:35 AM 33.8 °F 23.9 °F 28.4 °F 81% 30.24 in 10.0 mi NNW 15.0 mph - N/A   Mostly Cloudy
8:55 AM 33.8 °F 27.7 °F 28.4 °F 81% 30.25 in 10.0 mi North 6.9 mph - N/A   Mostly Cloudy
9:15 AM 33.8 °F 24.8 °F 28.4 °F 81% 30.26 in 10.0 mi NNW 12.7 mph - N/A   Mostly Cloudy
9:35 AM 33.8 °F 26.4 °F 28.4 °F 81% 30.27 in 10.0 mi NNW 9.2 mph 16.1 mph N/A   Mostly Cloudy
9:55 AM 35.6 °F 28.0 °F 28.4 °F 75% 30.27 in 10.0 mi NNW 10.4 mph 16.1 mph N/A   Scattered Clouds
10:15 AM 37.4 °F 30.3 °F 28.4 °F 70% 30.26 in 10.0 mi North 10.4 mph - N/A   Scattered Clouds
10:35 AM 37.4 °F 30.8 °F 28.4 °F 70% 30.27 in 10.0 mi NNW 9.2 mph - N/A   Clear
10:55 AM 37.4 °F 30.3 °F 28.4 °F 70% 30.27 in 10.0 mi NNW 10.4 mph - N/A   Clear
11:15 AM 39.2 °F 32.0 °F 28.4 °F 65% 30.27 in 10.0 mi North 11.5 mph - N/A   Clear
11:35 AM 41.0 °F 35.2 °F 28.4 °F 61% 30.27 in 10.0 mi NNW 9.2 mph - N/A   Clear
11:55 AM 41.0 °F 35.2 °F 28.4 °F 61% 30.27 in 10.0 mi North 9.2 mph - N/A   Clear
12:15 PM 42.8 °F 40.1 °F 26.6 °F 53% 30.26 in 10.0 mi North 4.6 mph - N/A   Clear
12:35 PM 44.6 °F 40.7 °F 26.6 °F 49% 30.25 in 10.0 mi North 6.9 mph - N/A   Clear
12:55 PM 44.6 °F 39.7 °F 26.6 °F 49% 30.25 in 10.0 mi WNW 9.2 mph - N/A   Clear
1:15 PM 44.6 °F 39.2 °F 28.4 °F 53% 30.24 in 10.0 mi NNW 10.4 mph 16.1 mph N/A   Clear
1:35 PM 46.4 °F 42.9 °F 26.6 °F 46% 30.24 in 10.0 mi NW 6.9 mph - N/A   Clear
1:55 PM 46.4 °F 41.1 °F 26.6 °F 46% 30.23 in 10.0 mi WNW 11.5 mph 17.3 mph N/A   Clear
2:15 PM 46.4 °F 42.4 °F 26.6 °F 46% 30.22 in 10.0 mi NNW 8.1 mph 17.3 mph N/A   Clear
2:35 PM 46.4 °F 40.7 °F 26.6 °F 46% 30.22 in 10.0 mi NNW 12.7 mph 17.3 mph N/A   Clear
2:55 PM 48.2 °F - 24.8 °F 40% 30.21 in 10.0 mi NNW 6.9 mph 17.3 mph N/A   Clear
3:15 PM 48.2 °F - 23.0 °F 37% 30.21 in 10.0 mi North 9.2 mph - N/A   Clear
3:35 PM 50.0 °F - 23.0 °F 35% 30.20 in 10.0 mi NNW 9.2 mph - N/A   Clear
3:55 PM 48.2 °F - 21.2 °F 34% 30.19 in 10.0 mi NNW 12.7 mph 17.3 mph N/A   Clear
4:15 PM 50.0 °F - 23.0 °F 35% 30.19 in 10.0 mi North 10.4 mph 16.1 mph N/A   Clear
4:35 PM 50.0 °F - 23.0 °F 35% 30.19 in 10.0 mi North 11.5 mph 16.1 mph N/A   Clear
4:55 PM 50.0 °F - 23.0 °F 35% 30.19 in 10.0 mi North 10.4 mph 16.1 mph N/A   Clear
5:15 PM 48.2 °F - 23.0 °F 37% 30.19 in 10.0 mi North 9.2 mph - N/A   Clear
5:35 PM 48.2 °F - 23.0 °F 37% 30.20 in 10.0 mi NNW 11.5 mph 16.1 mph N/A   Clear
5:55 PM 46.4 °F 41.9 °F 21.2 °F 37% 30.20 in 10.0 mi North 9.2 mph 16.1 mph N/A   Scattered Clouds
6:15 PM 46.4 °F 42.4 °F 21.2 °F 37% 30.20 in 10.0 mi NNW 8.1 mph - N/A   Mostly Cloudy
6:35 PM 46.4 °F 41.9 °F 21.2 °F 37% 30.19 in 10.0 mi NNW 9.2 mph - N/A   Scattered Clouds
6:55 PM 44.6 °F 39.7 °F 19.4 °F 37% 30.19 in 10.0 mi North 9.2 mph - N/A   Clear
7:15 PM 44.6 °F 39.7 °F 19.4 °F 37% 30.19 in 10.0 mi NNW 9.2 mph - N/A   Clear
7:35 PM 44.6 °F 39.2 °F 19.4 °F 37% 30.21 in 10.0 mi NNW 10.4 mph - N/A   Clear
7:55 PM 42.8 °F 38.0 °F 17.6 °F 36% 30.22 in 10.0 mi NNW 8.1 mph - N/A   Clear
8:15 PM 42.8 °F 36.2 °F 17.6 °F 36% 30.23 in 10.0 mi NNW 12.7 mph - N/A   Mostly Cloudy
8:35 PM 42.8 °F 36.6 °F 17.6 °F 36% 30.24 in 10.0 mi NNW 11.5 mph - N/A   Mostly Cloudy
8:55 PM 42.8 °F 38.0 °F 17.6 °F 36% 30.25 in 10.0 mi North 8.1 mph 16.1 mph N/A   Mostly Cloudy
9:15 PM 41.0 °F 34.7 °F 17.6 °F 39% 30.26 in 10.0 mi North 10.4 mph 17.3 mph N/A   Scattered Clouds
9:35 PM 41.0 °F 34.7 °F 19.4 °F 42% 30.27 in 10.0 mi North 10.4 mph - N/A   Mostly Cloudy
9:55 PM 41.0 °F 36.4 °F 17.6 °F 39% 30.28 in 10.0 mi North 6.9 mph - N/A   Overcast
10:15 PM 39.2 °F 31.2 °F 17.6 °F 42% 30.29 in 10.0 mi North 13.8 mph 19.6 mph N/A   Scattered Clouds
10:35 PM 39.2 °F 32.0 °F 17.6 °F 42% 30.29 in 10.0 mi North 11.5 mph 16.1 mph N/A   Mostly Cloudy
10:55 PM 39.2 °F 32.5 °F 17.6 °F 42% 30.31 in 10.0 mi NNE 10.4 mph 17.3 mph N/A   Scattered Clouds
11:15 PM 37.4 °F 29.3 °F 17.6 °F 45% 30.31 in 10.0 mi North 12.7 mph 19.6 mph N/A   Mostly Cloudy
11:35 PM 37.4 °F 30.8 °F 17.6 °F 45% 30.31 in 10.0 mi North 9.2 mph - N/A   Overcast
11:55 PM 37.4 °F 30.3 °F 17.6 °F 45% 30.33 in 10.0 mi North 10.4 mph 17.3 mph N/A   Mostly Cloudy